+ View the NASA Portal
+ Center for Near-Earth Object Studies
IMPORTANT:
The SSD Announcement email list is now available. Major changes are coming in the near future, including possible hostname and/or URL changes. To be notified of such changes, subscribe to this email list.
Please visit
this page
for more details.
Don't show this message again
JPL Small-Body Database Browser
Search:
[
help
]
452507 (2004 RL179)
Classification:
Main-belt Asteroid
SPK-ID:
2452507
[
Ephemeris
|
Orbit Diagram
|
Orbital Elements
|
Mission Design
|
Physical Parameters
|
Discovery Circumstances
|
Close-Approach Data
]
[ show orbit diagram ]
Orbital Elements at Epoch 2458600.5 (2019-Apr-27.0) TDB
Reference:
JPL 16
(heliocentric ecliptic J2000)
Element
Value
Uncertainty (1-sigma)
Units
e
.2000228237793907
6.3881e-08
a
2.794331943425093
3.5638e-08
au
q
2.235401777524253
1.8122e-07
au
i
12.82255250872537
1.2151e-05
deg
node
331.1991507787415
3.2515e-05
deg
peri
319.0165094007453
4.6228e-05
deg
M
90.79169654715561
3.0159e-05
deg
t
p
2458170.212182123758
(2018-Feb-20.71218212)
0.00014354
TDB
period
1706.142966003428
4.67
3.2639e-05
8.936e-08
d
yr
n
.2110022472754939
4.0366e-09
deg/d
Q
3.353262109325933
4.2766e-08
au
Orbit Determination Parameters
# obs. used (total)
165
data-arc span
5151 days (14.10 yr)
first obs. used
2004-08-11
last obs. used
2018-09-18
planetary ephem.
DE431
SB-pert. ephem.
SB431-N16
condition code
0
norm. resid. RMS
.53989
source
ORB
producer
Otto Matic
solution date
2018-Oct-03 13:17:30
Additional Information
Earth MOID
= 1.23593 au
Jupiter MOID
= 1.96602 au
T_jup
= 3.262
[ show covariance matrix ]
[
Ephemeris
|
Orbit Diagram
|
Orbital Elements
|
Mission Design
|
Physical Parameters
|
Discovery Circumstances
|
Close-Approach Data
]
Physical Parameter Table
Parameter
Symbol
Value
Units
Sigma
Reference
Notes
absolute magnitude
H
16.3
n/a
MPO456155
452507 (2004 RL179)
Discovered 2004-Aug-11 by LINEAR at Socorro
Reference:
Last Updated:
2016-01-04
[ show close-approach data ]
[
Ephemeris
|
Orbit Diagram
|
Orbital Elements
|
Mission Design
|
Physical Parameters
|
Discovery Circumstances
|
Close-Approach Data
]
2019-Dec-11 02:01 UT
(server date/time)
Site Manager:
Ryan S. Park
Webmaster
:
Alan B. Chamberlin